Location: Newark
(34.6283°N, 36.0776°E)
Time: 23:03:17
(UTC+00:00)

A-11 Canister half - Pass Details

Date: 20 September 2019
Orbit: 1527 x 1682 km, 47.3° (Epoch: 20 October)

Event Time Altitude Azimuth Distance (km) Brightness Sun altitude
Rises 08:37:33 0° 304° (WNW) 4,827 11.3 54.4°
Reaches altitude 10° 08:40:40 10° 301° (WNW) 3,860 10.9 54.6°
Maximum altitude 08:50:21 62° 224° (SW) 1,828 10.7 55.3°
Drops below altitude 10° 09:00:15 10° 146° (SE) 3,931 11.8 55.8°
Sets 09:03:28 0° 143° (SE) 4,920 12.1 56.0°
